Wind_Speed
21 22 23 24 25 25 25 25 25 24 24 23 23 22 22 23 21 20 20 20 19 18 17 16 16 16 16 16 16 16 16 16 16 17 17 17 17 17 17 17 17 17 18
23 23 23 23 24 25 25 25 25 25 25 24 23 23 23 23 23 22 21 21 20 20 19 18 18 18 17 17 17 18 18 18 18 18 18 19 19 19 19 19 20 20 20
23 23 24 24 25 24 24 24 24 25 25 24 24 24 23 23 24 24 23 23 22 22 21 21 20 20 20 19 19 20 20 20 20 20 20 20 20 20 21 21 22 22 21
24 24 24 24 25 25 24 24 24 24 25 24 24 24 23 24 25 24 25 24 24 23 22 22 21 22 22 22 22 21 22 21 21 21 21 21 21 21 22 22 23 23 23
24 24 25 25 24 25 25 25 26 25 25 25 25 25 25 24 25 25 25 25 24 23 23 24 23 24 24 24 24 23 23 22 22 22 22 22 22 22 22 23 24 24 25
24 24 25 25 24 24 25 25 26 26 26 26 26 26 25 25 24 25 25 26 26 25 24 25 25 25 25 25 25 24 23 23 23 23 22 22 22 23 23 23 24 25 26
24 24 24 23 23 22 23 24 25 26 26 26 26 26 26 25 25 25 26 26 26 26 25 25 25 25 25 25 25 25 25 24 24 23 23 23 22 23 23 23 24 25 26
23 24 24 23 23 22 23 24 25 26 26 26 25 25 26 26 26 25 25 25 26 25 25 25 25 25 26 25 25 26 25 25 24 24 24 24 24 24 23 24 25 26 27
23 23 23 23 23 23 23 23 24 25 26 26 25 26 26 25 26 26 26 26 26 26 25 26 26 26 25 25 25 26 26 25 25 25 25 25 25 24 25 26 27 27 27
24 24 24 24 24 23 23 24 25 26 26 27 27 27 27 27 26 26 27 27 26 26 27 26 26 26 25 25 25 25 25 25 25 25 25 26 26 25 25 26 27 28 28
24 24 25 25 25 25 25 25 26 26 27 27 27 27 27 27 28 28 27 28 27 27 26 26 25 25 25 24 24 25 25 26 26 26 26 26 27 27 27 27 26 27 29
26 26 25 26 26 25 25 25 25 25 26 26 25 26 27 27 27 26 27 27 27 27 26 25 25 26 25 25 25 26 26 27 27 26 26 27 28 28 28 28 28 28 29
28 27 26 26 26 26 25 25 25 26 26 25 25 25 26 26 26 26 26 25 25 25 25 25 26 26 26 26 26 26 26 26 27 27 27 27 28 28 29 28 28 28 28
27 26 26 27 27 26 25 25 25 26 26 26 26 25 25 25 25 25 25 26 26 26 26 26 26 26 26 26 26 26 26 26 27 27 27 28 28 28 28 27 28 27 27
27 26 26 27 26 26 25 25 26 24 24 24 24 24 25 26 26 25 25 26 27 27 26 26 27 27 27 26 26 27 26 27 27 27 27 27 27 27 27 27 26 26 26
27 26 26 27 27 26 26 25 25 24 23 23 23 24 24 25 25 26 27 26 27 27 27 26 26 27 27 27 26 26 25 26 26 26 26 26 27 26 26 26 25 25 26
27 26 26 26 26 26 26 25 24 24 23 24 23 24 24 24 25 25 26 26 27 27 27 26 26 27 26 26 25 26 25 25 25 25 25 25 25 25 25 25 25 25 25
26 26 25 25 26 25 25 24 24 24 24 24 24 23 24 24 24 24 25 25 26 26 26 26 26 26 26 25 25 26 25 24 24 23 23 24 24 24 24 24 24 23 23
25 25 25 25 25 24 24 24 24 23 24 23 23 23 23 23 23 24 24 23 24 24 24 25 25 25 25 25 25 25 24 24 23 23 23 23 23 23 23 23 22 21 20
23 23 23 23 23 23 23 23 23 22 22 23 23 22 22 21 22 23 22 22 23 23 23 24 24 24 25 25 25 24 23 23 22 22 21 21 20 20 20 20 20 20 20
22 22 21 21 21 22 22 21 21 21 21 21 21 22 21 21 22 23 23 23 22 22 23 23 23 23 23 23 23 22 22 21 20 19 19 19 19 19 19 18 18 18 18
21 21 21 21 21 21 20 20 20 20 20 20 20 20 20 21 22 22 22 22 22 22 21 21 21 21 22 22 22 22 21 20 19 19 19 19 18 18 18 18 17 17 16
20 20 21 21 20 20 19 19 19 18 18 18 18 18 19 19 18 19 19 19 19 19 19 19 19 20 20 20 20 20 20 19 18 18 18 17 17 17 16 15 15 14 14
20 20 19 19 19 19 18 18 18 17 17 17 17 17 17 17 17 17 17 17 17 17 17 17 17 18 18 18 18 17 17 17 16 15 15 15 15 15 15 14 13 13 13
18 18 18 17 17 16 16 16 16 16 16 15 15 15 15 16 15 15 16 16 16 16 16 16 16 16 16 15 15 15 14 14 14 14 13 13 14 14 13 12 12 12 12
17 17 16 15 14 14 14 13 13 14 13 13 13 13 13 12 13 13 13 13 13 13 13 13 12 12 12 12 12 12 12 12 12 12 12 12 13 13 12 11 11 11 11
Wind_Direction
292 291 287 283 282 281 278 274 271 271 269 270 271 270 267 264 266 267 267 265 265 265 265 266 268 269 270 267 267 268 266 265 265 265 265 265 266 267 267 267 267 267 267
291 290 288 287 286 282 277 274 271 270 268 269 268 266 265 263 261 261 264 264 263 264 263 263 264 266 267 269 268 267 267 267 266 265 265 266 266 267 268 267 266 266 267
288 288 286 284 283 282 278 275 271 271 269 270 268 263 262 263 260 260 261 262 262 263 262 261 261 263 265 266 267 268 268 268 266 265 265 267 267 268 268 268 266 265 266
286 287 286 283 281 279 276 272 271 270 268 269 268 265 262 263 260 259 259 260 262 262 262 261 261 261 263 265 266 268 268 269 268 267 267 266 266 267 268 269 268 266 268
287 286 286 284 281 276 272 269 268 267 267 268 268 266 264 263 260 259 259 262 262 262 261 260 260 262 264 265 265 266 266 268 269 267 267 266 267 267 267 268 268 268 269
285 285 285 284 280 275 270 267 264 264 266 266 266 264 262 261 261 261 262 262 262 262 261 262 262 262 264 265 263 263 264 265 266 266 266 267 268 268 269 269 269 270 270
286 285 285 283 279 276 270 265 265 264 265 265 265 262 261 260 260 262 262 261 261 261 260 261 261 262 265 265 264 264 263 263 265 265 266 267 269 270 272 271 270 271 270
287 285 284 282 278 276 273 270 270 266 265 264 262 260 259 259 261 263 263 262 261 260 260 260 260 263 266 265 264 263 261 263 265 264 264 266 268 270 272 271 271 271 271
287 286 284 283 281 278 276 271 269 266 263 263 262 262 260 259 261 262 263 263 261 260 261 260 259 261 264 264 265 263 261 262 264 263 264 265 268 271 272 273 273 271 271
285 285 284 282 280 277 275 272 269 267 265 264 263 262 259 258 259 261 261 260 260 260 260 260 261 260 262 262 263 262 261 262 263 263 264 266 269 271 274 275 274 272 272
286 286 285 282 279 277 275 273 270 267 265 264 262 259 259 258 259 259 258 259 260 260 260 259 258 259 261 262 262 261 261 262 262 262 264 266 268 270 274 275 275 274 275
286 285 285 281 279 276 273 273 271 268 265 262 260 259 259 259 258 258 258 258 258 258 258 259 258 259 261 260 261 261 262 263 262 262 264 267 270 272 274 274 276 278 277
285 283 283 281 276 274 272 272 272 270 266 262 260 259 258 257 257 257 257 255 255 255 256 258 259 258 259 260 260 261 262 263 263 263 265 268 270 272 273 273 276 278 279
285 284 282 279 278 275 273 272 273 270 267 263 259 258 258 257 257 256 255 254 254 255 255 256 257 258 260 260 261 263 264 264 264 264 267 268 269 271 272 274 275 277 279
282 282 281 279 277 274 272 273 273 272 267 265 262 259 258 257 257 256 256 256 255 254 254 255 257 258 259 260 262 263 264 263 265 266 268 269 269 271 271 273 273 275 278
280 280 279 277 275 272 271 272 271 269 268 267 265 261 259 259 258 258 257 257 256 255 255 255 257 259 259 260 261 262 265 265 265 267 267 268 269 271 272 273 273 275 278
279 278 279 277 275 272 270 271 269 267 267 266 267 264 261 260 258 257 256 255 255 256 255 256 259 259 258 259 260 261 264 267 268 267 267 268 268 270 273 273 274 276 278
279 278 277 275 274 273 271 270 268 267 267 266 266 265 261 259 258 256 256 255 255 256 256 258 258 259 258 259 261 263 265 268 269 269 269 268 267 270 272 273 273 275 278
280 277 275 274 273 272 271 270 269 267 267 267 266 265 262 259 256 257 258 257 256 256 256 255 257 258 259 259 260 262 264 265 267 268 270 269 269 269 271 272 272 275 278
281 280 277 274 273 272 271 271 270 269 268 267 267 265 264 261 257 257 257 256 257 257 257 257 257 257 257 258 259 262 264 265 266 268 267 269 270 270 271 271 273 275 278
280 279 277 275 275 274 272 270 268 269 269 269 267 265 264 263 259 257 257 256 256 257 258 258 258 257 257 257 258 261 264 265 267 266 266 267 269 271 273 274 275 277 278
279 277 276 276 275 274 272 270 267 267 268 268 267 265 264 265 261 258 256 256 257 257 258 259 259 258 256 256 257 259 262 264 265 266 266 267 269 272 274 274 275 273 273
279 278 277 277 275 271 268 269 268 267 267 267 264 263 263 264 262 258 256 256 254 255 257 258 256 256 256 256 257 257 257 259 262 262 263 267 270 271 273 272 270 270 273
278 278 278 278 275 271 267 266 266 266 267 266 264 263 263 262 261 258 255 254 252 253 255 256 255 255 256 254 250 251 254 256 258 260 264 267 270 271 271 269 268 270 274
278 277 277 277 273 268 264 264 265 265 265 266 264 265 265 263 260 258 255 252 249 251 255 256 254 253 252 249 249 250 251 254 256 259 262 265 269 271 268 265 265 270 275
280 279 277 274 272 269 267 264 264 263 263 263 264 263 264 262 260 258 252 250 249 249 252 250 247 247 244 242 244 244 246 249 253 259 264 267 268 267 264 264 265 268 273
Height
5868 5867 5866 5866 5865 5864 5864 5864 5864 5865 5865 5866 5866 5867 5867 5868 5869 5870 5870 5870 5871 5871 5871 5871 5872 5872 5872 5873 5873 5873 5874 5874 5874 5875 5875 5876 5876 5876 5877 5877 5877 5877 5878
5863 5862 5862 5860 5860 5859 5859 5858 5859 5859 5860 5861 5861 5861 5862 5863 5864 5865 5866 5866 5866 5867 5867 5867 5868 5868 5868 5869 5869 5869 5870 5870 5870 5871 5871 5871 5872 5872 5872 5873 5873 5873 5873
5858 5857 5856 5855 5854 5854 5853 5853 5854 5854 5854 5855 5855 5856 5857 5858 5858 5859 5860 5861 5861 5862 5862 5863 5863 5863 5864 5864 5865 5865 5865 5865 5866 5866 5866 5867 5867 5867 5868 5868 5868 5868 5868
5853 5852 5851 5850 5848 5848 5847 5848 5848 5848 5849 5849 5850 5851 5851 5852 5853 5853 5854 5855 5856 5856 5857 5857 5858 5858 5859 5859 5860 5860 5860 5861 5861 5861 5861 5862 5862 5862 5862 5862 5863 5863 5863
5848 5846 5845 5844 5843 5842 5842 5842 5842 5842 5843 5844 5844 5845 5846 5846 5847 5848 5849 5849 5850 5851 5851 5852 5852 5853 5854 5854 5854 5855 5855 5856 5856 5856 5856 5857 5857 5857 5857 5857 5857 5857 5858
5842 5841 5839 5838 5837 5836 5836 5836 5836 5837 5837 5837 5838 5839 5840 5841 5841 5842 5843 5844 5845 5845 5846 5846 5847 5847 5848 5848 5849 5849 5850 5850 5851 5851 5851 5851 5851 5852 5852 5852 5852 5852 5852
5836 5835 5833 5832 5831 5830 5830 5830 5830 5830 5831 5831 5832 5833 5834 5835 5835 5836 5837 5838 5839 5839 5840 5841 5841 5842 5842 5842 5843 5843 5844 5844 5845 5845 5846 5846 5846 5846 5846 5846 5846 5845 5845
5830 5829 5828 5826 5825 5825 5824 5824 5824 5824 5824 5825 5826 5826 5828 5829 5829 5830 5831 5831 5832 5833 5834 5834 5835 5836 5836 5837 5837 5838 5838 5839 5839 5840 5840 5840 5840 5841 5840 5840 5840 5839 5839
5825 5823 5822 5821 5820 5819 5818 5818 5818 5818 5818 5818 5819 5820 5821 5822 5823 5824 5824 5825 5826 5826 5827 5828 5829 5829 5830 5831 5831 5831 5832 5832 5833 5834 5834 5835 5835 5835 5834 5834 5833 5833 5833
5819 5817 5816 5815 5813 5813 5812 5812 5812 5812 5812 5812 5812 5813 5814 5815 5816 5817 5818 5818 5819 5820 5821 5822 5822 5823 5824 5824 5825 5825 5826 5826 5827 5828 5828 5828 5829 5829 5828 5828 5827 5827 5827
5813 5811 5810 5809 5807 5806 5806 5805 5805 5805 5805 5805 5806 5806 5807 5808 5809 5810 5811 5812 5812 5813 5814 5815 5816 5817 5818 5818 5819 5819 5820 5820 5821 5822 5822 5822 5823 5823 5822 5821 5821 5820 5820
5806 5805 5803 5802 5801 5800 5799 5799 5798 5798 5798 5798 5798 5799 5800 5801 5802 5803 5804 5805 5806 5807 5807 5808 5810 5811 5811 5812 5812 5813 5814 5814 5815 5815 5816 5816 5816 5816 5815 5815 5814 5814 5813
5799 5798 5797 5795 5794 5793 5792 5791 5791 5791 5791 5791 5792 5792 5793 5794 5794 5795 5796 5798 5799 5800 5801 5802 5803 5804 5805 5805 5806 5807 5807 5808 5809 5809 5809 5809 5809 5809 5809 5808 5808 5807 5806
5792 5790 5789 5788 5787 5786 5785 5785 5784 5783 5784 5784 5784 5785 5786 5786 5787 5788 5789 5791 5792 5794 5795 5795 5796 5797 5798 5799 5799 5800 5801 5801 5802 5802 5803 5803 5803 5803 5803 5802 5801 5801 5800
5785 5783 5782 5781 5780 5779 5779 5778 5777 5776 5776 5777 5777 5778 5779 5779 5780 5781 5782 5784 5785 5787 5788 5789 5789 5790 5791 5792 5793 5793 5794 5794 5795 5795 5796 5796 5796 5796 5796 5795 5795 5794 5793
5777 5776 5775 5774 5773 5773 5772 5771 5771 5770 5770 5770 5770 5771 5771 5772 5773 5774 5775 5776 5778 5779 5781 5782 5783 5784 5784 5785 5786 5787 5787 5788 5788 5789 5789 5790 5790 5789 5789 5789 5788 5787 5787
5770 5769 5767 5767 5766 5765 5765 5764 5764 5764 5764 5764 5764 5764 5764 5765 5766 5767 5768 5769 5771 5772 5774 5775 5776 5777 5778 5779 5779 5780 5781 5781 5782 5782 5782 5783 5783 5783 5783 5782 5782 5781 5781
5763 5761 5760 5760 5759 5758 5758 5757 5757 5757 5757 5757 5757 5757 5758 5758 5759 5760 5761 5762 5763 5765 5767 5768 5769 5770 5771 5772 5773 5774 5775 5775 5776 5776 5776 5776 5776 5777 5776 5776 5776 5775 5775
5755 5754 5753 5752 5752 5752 5751 5751 5750 5751 5751 5751 5751 5751 5751 5751 5752 5753 5754 5755 5756 5758 5759 5761 5762 5763 5765 5766 5767 5768 5768 5769 5770 5770 5770 5770 5770 5771 5771 5770 5770 5770 5770
5748 5747 5746 5746 5745 5745 5744 5744 5744 5744 5744 5744 5745 5745 5745 5745 5746 5747 5748 5749 5750 5751 5753 5754 5755 5757 5758 5759 5761 5762 5763 5763 5764 5764 5764 5764 5765 5765 5765 5765 5765 5765 5765
5742 5741 5740 5739 5738 5738 5738 5738 5738 5738 5738 5738 5738 5739 5739 5739 5740 5741 5742 5743 5744 5745 5746 5747 5749 5750 5752 5753 5755 5756 5757 5758 5758 5758 5759 5759 5760 5760 5760 5760 5760 5760 5760
5735 5734 5734 5733 5732 5732 5732 5732 5732 5732 5732 5732 5732 5733 5733 5733 5734 5734 5735 5737 5738 5739 5741 5742 5743 5744 5746 5747 5749 5750 5751 5752 5753 5754 5754 5755 5755 5755 5755 5756 5756 5756 5756
5729 5728 5728 5727 5726 5726 5726 5726 5726 5727 5727 5727 5727 5727 5728 5728 5728 5728 5730 5731 5732 5734 5735 5736 5737 5739 5740 5742 5743 5744 5746 5747 5748 5749 5749 5750 5750 5751 5751 5751 5751 5751 5752
5723 5722 5722 5721 5720 5720 5720 5721 5721 5722 5722 5722 5723 5723 5723 5723 5723 5724 5725 5726 5728 5729 5730 5731 5733 5734 5735 5736 5738 5740 5741 5742 5743 5744 5745 5746 5746 5746 5747 5747 5747 5747 5748
5717 5717 5716 5716 5715 5715 5716 5716 5716 5717 5717 5718 5718 5718 5718 5719 5719 5719 5720 5721 5723 5725 5726 5727 5728 5729 5731 5732 5734 5735 5737 5738 5739 5740 5741 5742 5742 5742 5742 5743 5743 5743 5743
5712 5712 5711 5711 5711 5711 5711 5712 5713 5713 5714 5714 5714 5714 5715 5715 5715 5716 5717 5718 5720 5721 5722 5723 5725 5726 5727 5729 5730 5732 5734 5735 5736 5737 5737 5738 5738 5739 5739 5739 5739 5740 5740